TimePST,TemperatureF,Dew PointF,Humidity,Sea Level PressureIn,VisibilityMPH,Wind Direction,Wind SpeedMPH,Gust SpeedMPH,PrecipitationIn,Events,Conditions,WindDirDegrees,DateUTC
12:00 AM,42.8,39.2,87,30.14,2.0,Variable,4.6,-,0.02,Rain,Rain,0,2012-12-06 08:00:00
12:09 AM,42.8,41.0,93,30.15,6.0,Calm,Calm,-,0.03,,Overcast,0,2012-12-06 08:09:00
12:53 AM,41.0,39.9,96,30.14,7.0,Calm,Calm,-,0.03,,Mostly Cloudy,0,2012-12-06 08:53:00
1:53 AM,42.1,41.0,96,30.13,2.5,Calm,Calm,-,0.01,Rain,Light Rain,0,2012-12-06 09:53:00
1:56 AM,42.8,41.0,93,30.13,4.0,Calm,Calm,-,0.00,Rain,Light Rain,0,2012-12-06 09:56:00
2:15 AM,42.8,41.0,93,30.13,6.0,Calm,Calm,-,0.00,,Overcast,0,2012-12-06 10:15:00
2:53 AM,42.1,41.0,96,30.13,5.0,ESE,3.5,-,0.02,Rain,Light Rain,110,2012-12-06 10:53:00
3:04 AM,42.8,41.0,93,30.12,5.0,Calm,Calm,-,0.00,,Overcast,0,2012-12-06 11:04:00
3:22 AM,42.8,41.0,93,30.12,5.0,Calm,Calm,-,0.01,Rain,Light Rain,0,2012-12-06 11:22:00
3:53 AM,42.1,41.0,96,30.11,6.0,Calm,Calm,-,0.01,,Overcast,0,2012-12-06 11:53:00
4:02 AM,42.8,41.0,93,30.10,6.0,SSE,3.5,-,N/A,,Overcast,160,2012-12-06 12:02:00
4:09 AM,42.8,41.0,93,30.10,6.0,Variable,3.5,-,0.00,Rain,Light Rain,0,2012-12-06 12:09:00
4:53 AM,44.1,41.0,89,30.09,6.0,SSW,5.8,-,0.00,Rain,Light Rain,210,2012-12-06 12:53:00
5:19 AM,44.6,42.8,93,30.08,2.5,West,9.2,-,0.02,Rain,Light Rain,280,2012-12-06 13:19:00
5:30 AM,44.6,42.8,93,30.08,1.8,West,8.1,-,0.05,Rain,Light Rain,260,2012-12-06 13:30:00
5:53 AM,44.1,41.0,89,30.07,2.0,WSW,12.7,17.3,0.12,Rain,Rain,250,2012-12-06 13:53:00
6:03 AM,44.6,41.0,87,30.07,4.0,SW,5.8,-,0.02,Rain,Light Rain,230,2012-12-06 14:03:00
6:29 AM,44.6,42.8,93,30.06,6.0,SW,4.6,-,0.02,Rain,Light Rain,230,2012-12-06 14:29:00
6:53 AM,45.0,42.1,90,30.06,6.0,SSW,8.1,16.1,0.02,Rain,Light Rain,200,2012-12-06 14:53:00
7:23 AM,44.6,42.8,93,30.05,4.0,SW,10.4,-,0.01,Rain,Light Rain,230,2012-12-06 15:23:00
7:37 AM,44.6,42.8,93,30.06,2.5,WSW,8.1,-,0.02,Rain,Light Rain,240,2012-12-06 15:37:00
7:45 AM,44.6,41.0,87,30.06,1.2,West,6.9,17.3,0.06,Rain,Rain,280,2012-12-06 15:45:00
7:53 AM,43.0,41.0,93,30.06,1.2,WSW,5.8,-,0.11,Rain,Rain,240,2012-12-06 15:53:00
7:57 AM,42.8,41.0,93,30.06,2.0,SW,5.8,-,0.02,Rain,Light Rain,230,2012-12-06 15:57:00
8:05 AM,42.8,41.0,93,30.06,5.0,Variable,6.9,-,0.02,Rain,Light Rain,0,2012-12-06 16:05:00
8:21 AM,44.6,42.8,93,30.06,3.0,SW,9.2,-,0.04,Rain,Light Rain,230,2012-12-06 16:21:00
8:53 AM,44.1,42.1,93,30.06,5.0,SW,4.6,-,0.06,,Overcast,230,2012-12-06 16:53:00
9:40 AM,44.6,42.8,93,30.07,1.5,WNW,9.2,-,0.00,Rain,Light Rain,300,2012-12-06 17:40:00
9:43 AM,44.6,41.0,87,30.07,1.2,Variable,6.9,-,0.02,Rain,Rain,0,2012-12-06 17:43:00
9:49 AM,44.6,41.0,87,30.08,1.8,West,5.8,-,0.02,Rain,Light Rain,280,2012-12-06 17:49:00
9:53 AM,44.1,41.0,89,30.08,1.8,West,8.1,-,0.03,Rain,Rain,270,2012-12-06 17:53:00
10:02 AM,44.6,41.0,87,30.08,1.2,West,8.1,-,0.03,Rain,Rain,260,2012-12-06 18:02:00
10:14 AM,44.6,41.0,87,30.08,2.0,WSW,6.9,16.1,0.05,Rain,Light Rain,250,2012-12-06 18:14:00
10:21 AM,44.6,41.0,87,30.08,3.0,WSW,6.9,-,0.06,Rain,Light Rain,250,2012-12-06 18:21:00
10:33 AM,44.6,42.8,93,30.08,2.0,WSW,4.6,-,0.06,Rain,Light Rain,250,2012-12-06 18:33:00
10:44 AM,44.6,42.8,93,30.09,2.5,West,6.9,-,0.07,Rain,Light Rain,260,2012-12-06 18:44:00
10:53 AM,44.1,41.0,89,30.09,2.0,West,8.1,-,0.08,Rain,Light Rain,260,2012-12-06 18:53:00
11:02 AM,44.6,41.0,87,30.08,3.0,WSW,9.2,-,0.01,Rain,Light Rain,250,2012-12-06 19:02:00
11:53 AM,45.0,42.1,90,30.08,3.0,WSW,5.8,-,0.01,Rain,Light Rain,240,2012-12-06 19:53:00
12:01 PM,44.6,42.8,93,30.07,5.0,SW,5.8,-,0.00,Rain,Light Rain,230,2012-12-06 20:01:00
12:09 PM,44.6,42.8,93,30.07,4.0,SW,4.6,-,0.00,Rain,Light Rain,220,2012-12-06 20:09:00
12:25 PM,44.6,42.8,93,30.06,2.5,SW,6.9,-,0.01,Rain,Light Rain,230,2012-12-06 20:25:00
12:28 PM,44.6,42.8,93,30.06,1.8,WSW,6.9,-,0.01,Rain,Light Rain,240,2012-12-06 20:28:00
12:41 PM,44.6,42.8,93,30.06,3.0,WSW,3.5,-,0.03,Rain,Light Rain,240,2012-12-06 20:41:00
12:53 PM,45.0,43.0,93,30.06,5.0,WSW,6.9,-,0.03,Rain,Light Rain,240,2012-12-06 20:53:00
1:24 PM,44.6,42.8,93,30.06,5.0,West,6.9,-,0.00,,Overcast,260,2012-12-06 21:24:00
1:53 PM,46.0,42.1,86,30.06,5.0,WSW,8.1,-,0.00,,Overcast,250,2012-12-06 21:53:00
2:08 PM,46.4,42.8,87,30.06,4.0,West,10.4,-,0.00,Rain,Light Rain,260,2012-12-06 22:08:00
2:38 PM,44.6,42.8,93,30.05,5.0,West,8.1,17.3,0.01,,Overcast,260,2012-12-06 22:38:00
2:53 PM,45.0,42.1,90,30.06,5.0,West,9.2,-,0.01,,Overcast,260,2012-12-06 22:53:00
3:53 PM,45.0,41.0,86,30.07,5.0,West,8.1,-,N/A,,Mostly Cloudy,260,2012-12-06 23:53:00
4:53 PM,43.0,39.9,89,30.08,6.0,Calm,Calm,-,N/A,,Mostly Cloudy,0,2012-12-07 00:53:00
5:53 PM,42.1,41.0,96,30.09,6.0,Calm,Calm,-,N/A,,Overcast,0,2012-12-07 01:53:00
6:53 PM,41.0,39.9,96,30.08,5.0,SE,4.6,-,N/A,,Scattered Clouds,140,2012-12-07 02:53:00
7:53 PM,39.0,37.9,96,30.09,5.0,East,3.5,-,N/A,,Overcast,100,2012-12-07 03:53:00
8:28 PM,41.0,39.2,93,30.09,5.0,Calm,Calm,-,N/A,,Overcast,0,2012-12-07 04:28:00
8:37 PM,41.0,39.2,93,30.08,5.0,Calm,Calm,-,N/A,,Overcast,0,2012-12-07 04:37:00
8:53 PM,41.0,39.9,96,30.09,5.0,Calm,Calm,-,N/A,,Overcast,0,2012-12-07 04:53:00
9:53 PM,42.1,39.9,92,30.08,6.0,Variable,4.6,-,N/A,,Overcast,0,2012-12-07 05:53:00
10:03 PM,42.8,41.0,93,30.07,4.0,Variable,3.5,-,0.00,Rain,Light Rain,0,2012-12-07 06:03:00
10:09 PM,42.8,41.0,93,30.07,1.8,Variable,4.6,-,0.01,Rain,Rain,0,2012-12-07 06:09:00
10:23 PM,42.8,41.0,93,30.07,2.0,South,5.8,-,0.04,Rain,Light Rain,170,2012-12-07 06:23:00
10:30 PM,42.8,41.0,93,30.07,3.0,SSW,10.4,-,0.04,Rain,Light Rain,200,2012-12-07 06:30:00
10:53 PM,43.0,42.1,97,30.07,5.0,SSE,3.5,-,0.04,,Overcast,160,2012-12-07 06:53:00
11:17 PM,42.8,42.8,100,30.06,4.0,South,4.6,-,0.00,Rain,Light Rain,180,2012-12-07 07:17:00
11:28 PM,42.8,42.8,100,30.06,5.0,SSW,6.9,-,0.00,Rain,Light Rain,200,2012-12-07 07:28:00
11:38 PM,42.8,42.8,100,30.06,2.0,Variable,3.5,-,0.02,Rain,Rain,0,2012-12-07 07:38:00
11:53 PM,44.1,43.0,96,30.06,2.0,South,5.8,-,0.06,Rain,Rain,190,2012-12-07 07:53:00